Date,TemperatureHighF,TemperatureAvgF,TemperatureLowF,DewpointHighF,DewpointAvgF,DewpointLowF,HumidityHigh,HumidityAvg,HumidityLow,PressureMaxIn,PressureMinIn,WindSpeedMaxMPH,WindSpeedAvgMPH,GustSpeedMaxMPH,PrecipitationSumIn
2013-1-1,40.6,37.6,32.7,29.3,27.4,22.6,78,67,56,30.03,29.92,27,2,27,0.00
2013-1-2,34.4,29.7,24.5,26.7,18.5,12.0,74,63,46,30.24,30.00,26,5,26,0.00
2013-1-3,37.2,27.7,15.4,20.4,16.5,11.2,86,64,46,30.26,30.14,14,2,22,0.00
2013-1-4,39.9,34.9,32.5,22.7,20.4,18.9,60,55,47,30.21,30.11,36,11,37,0.00
2013-1-5,42.8,35.7,29.1,24.2,21.3,18.5,71,56,43,30.38,30.15,16,2,20,0.00
2013-1-6,46.2,38.9,26.3,29.6,27.0,22.1,87,63,47,30.17,30.02,17,2,20,0.00
2013-1-7,42.9,36.3,21.3,30.4,24.6,17.8,86,63,48,30.44,30.15,27,6,27,0.00
2013-1-8,53.2,32.1,19.2,33.1,24.4,16.2,92,75,42,30.41,30.34,10,1,15,0.00
2013-1-9,51.0,35.5,21.9,40.3,29.7,19.4,93,81,51,30.40,30.23,16,1,20,0.00
2013-1-10,51.0,43.4,34.1,32.0,28.8,24.1,80,57,43,30.60,30.38,27,4,27,0.00
2013-1-11,46.2,41.9,39.3,41.1,34.3,27.1,100,75,58,30.47,30.09,18,6,23,0.04
2013-1-12,57.5,46.9,39.5,48.8,44.0,39.5,100,90,70,30.17,30.08,14,2,20,0.00
2013-1-13,57.0,51.4,44.5,54.9,49.2,42.6,100,92,83,30.08,29.91,17,5,23,0.00
2013-1-14,53.3,48.5,38.3,53.3,42.6,32.6,100,81,56,30.32,29.92,24,5,28,0.17
2013-1-15,40.3,37.7,34.0,38.0,34.9,31.9,99,90,78,30.35,30.16,10,1,12,0.42
2013-1-16,38.2,35.8,32.9,38.2,35.4,32.9,100,99,93,30.16,29.85,20,1,22,0.61
2013-1-17,42.9,38.5,33.7,38.9,29.9,24.7,100,72,49,30.14,29.98,20,3,22,0.00
2013-1-18,36.6,32.2,28.1,27.7,16.7,6.0,78,53,30,30.50,30.06,34,8,34,0.00
2013-1-19,58.6,39.9,23.3,29.7,24.0,17.6,84,57,25,30.37,29.91,25,5,28,0.00
2013-1-20,54.1,40.7,28.7,30.9,19.3,6.2,74,45,18,30.09,29.82,39,9,50,0.00
2013-1-21,42.1,31.0,22.9,22.0,15.6,7.5,75,54,36,30.09,29.79,39,8,41,0.00
2013-1-22,25.6,17.3,12.3,7.2,-3.4,-8.3,56,40,28,30.28,29.95,40,16,40,0.00
2013-1-23,24.2,17.3,7.0,10.9,-0.4,-5.1,70,47,28,30.33,30.11,30,5,38,0.00
2013-1-24,24.8,19.0,14.9,13.8,6.4,-3.7,85,60,37,30.51,30.07,39,7,39,0.03
2013-1-25,21.4,17.1,9.3,15.4,7.7,-2.4,85,67,44,30.51,30.04,20,1,25,0.04
2013-1-26,30.6,24.0,17.3,24.2,19.2,12.9,87,82,69,30.42,30.06,9,0,12,0.00
2013-1-27,34.9,26.0,15.1,21.8,16.8,10.6,84,69,50,30.58,30.42,14,1,14,0.00
2013-1-28,40.3,35.3,31.0,38.7,31.4,21.7,94,86,66,30.42,30.01,12,3,16,0.12
2013-1-29,69.9,56.6,40.3,54.4,48.5,38.7,94,76,57,30.07,29.88,19,4,26,0.00
2013-1-30,70.3,59.4,55.4,60.4,55.0,48.8,100,86,70,29.89,29.16,42,9,54,1.48
2013-1-31,55.4,38.3,26.7,55.4,24.6,8.7,100,59,40,29.88,29.13,53,18,58,0.25
2013-2-1,28.7,22.9,16.2,23.3,9.1,1.4,90,56,41,30.37,29.80,35,12,39,0.01
2013-2-2,27.8,20.4,10.9,21.9,10.8,1.9,84,67,51,30.38,29.99,15,2,20,0.00
2013-2-3,34.0,27.5,21.1,27.5,22.7,14.8,91,82,59,29.99,29.79,27,3,30,0.00
2013-2-4,36.6,29.8,22.9,24.5,15.1,9.5,70,54,42,30.08,29.84,29,6,29,0.00
2013-2-5,38.2,32.9,30.1,32.0,28.6,22.6,92,84,70,29.91,29.82,7,0,9,0.00
2013-2-6,41.5,34.6,23.9,32.5,26.4,17.4,95,73,55,30.33,29.90,28,4,28,0.00
2013-2-7,39.2,31.5,22.2,27.1,22.0,17.4,87,69,53,30.40,30.17,16,3,20,0.00
2013-2-8,40.1,35.2,32.1,35.8,29.0,20.4,91,78,59,30.17,29.76,45,8,45,0.01
2013-2-9,39.5,31.4,21.8,21.6,16.7,12.5,71,55,35,30.38,29.93,44,16,44,0.00
2013-2-10,44.8,31.5,14.1,23.9,16.1,10.4,88,57,28,30.44,30.16,22,5,26,0.00
2013-2-11,63.1,47.5,34.9,48.4,35.9,20.5,94,70,21,30.16,29.63,29,9,38,0.14
2013-2-12,55.3,46.4,30.9,30.4,25.8,21.2,77,46,28,29.96,29.80,32,11,34,0.00
2013-2-13,41.3,33.5,24.1,32.3,27.1,20.5,95,79,59,29.92,29.64,15,1,15,0.08
2013-2-14,49.6,37.0,27.6,33.5,28.6,22.8,100,74,45,29.98,29.75,16,2,23,0.00
2013-2-15,53.2,39.0,27.0,36.2,30.9,22.5,94,74,47,30.00,29.89,26,2,26,0.10
2013-2-16,36.3,32.6,27.9,33.2,24.7,14.3,99,75,49,29.97,29.84,26,6,26,0.00
2013-2-17,29.8,25.3,21.6,16.4,10.1,4.3,68,53,37,30.20,29.84,35,14,38,0.00
2013-2-18,39.2,25.0,14.8,19.2,8.4,4.0,65,50,32,30.36,30.07,22,4,26,0.00
2013-2-19,48.9,40.0,34.0,40.4,27.0,17.1,84,60,45,30.07,29.63,28,7,30,0.02
2013-2-20,35.9,29.3,23.6,19.3,12.0,6.3,53,48,43,30.16,29.83,39,18,40,0.00
2013-2-21,36.8,27.9,22.9,16.5,12.8,8.4,73,53,40,30.32,30.11,33,10,33,0.00
2013-2-22,31.8,28.8,24.1,27.9,22.2,15.7,86,76,62,30.36,30.16,14,3,18,0.00
2013-2-23,45.5,36.6,31.8,39.0,33.2,27.6,94,87,77,30.16,29.80,13,1,14,0.00
2013-2-24,47.9,38.2,26.1,38.8,27.8,16.1,100,69,40,30.11,29.77,34,9,34,0.00
2013-2-25,46.2,31.8,18.1,24.3,19.5,14.0,87,63,37,30.20,30.10,9,1,10,0.00
2013-2-26,40.9,34.4,23.2,39.4,29.7,18.5,98,83,67,30.18,29.60,24,4,32,0.65
2013-2-27,53.9,43.1,36.2,41.0,35.4,30.7,100,77,45,29.66,29.53,30,6,33,0.02
2013-2-28,43.1,39.9,32.5,35.4,28.2,23.5,85,63,50,29.70,29.60,26,7,30,0.00
2013-3-1,41.8,38.0,32.2,29.6,26.3,21.3,69,63,51,29.88,29.70,29,12,30,0.00
2013-3-2,35.9,31.6,28.7,25.1,21.0,19.1,73,65,56,29.88,29.81,25,11,26,0.00
2013-3-3,40.9,31.8,27.3,20.7,17.7,15.0,73,56,39,29.92,29.79,29,12,34,0.00
2013-3-4,41.8,32.2,24.4,18.2,15.3,11.2,68,50,34,30.02,29.92,31,12,33,0.00
2013-3-5,48.9,35.4,19.7,29.2,18.0,9.4,84,54,22,30.06,29.78,22,3,27,0.00
2013-3-6,40.1,35.3,32.4,34.6,31.4,28.3,100,87,66,30.00,29.64,36,8,38,0.32
2013-3-7,46.1,39.6,35.0,31.1,27.5,24.0,73,62,48,30.15,30.00,31,12,32,0.00
2013-3-8,47.4,40.1,35.0,28.9,26.3,23.1,71,58,45,30.29,30.13,38,15,43,0.00
2013-3-9,59.5,39.3,23.2,28.8,24.1,19.9,89,60,23,30.36,30.22,15,2,16,0.00
2013-3-10,63.7,45.2,24.5,34.1,25.0,20.4,92,53,24,30.28,30.14,21,5,24,0.00
2013-3-11,59.8,51.1,41.9,48.3,39.4,24.3,85,65,35,30.15,29.80,28,10,33,0.00
2013-3-12,57.2,50.5,39.6,53.0,41.8,27.3,96,73,54,29.94,29.70,31,12,33,0.67
2013-3-13,46.4,38.0,28.2,30.9,23.1,14.2,82,57,30,30.04,29.88,38,11,38,0.00
2013-3-14,42.8,35.6,30.1,20.2,15.7,12.4,61,44,32,30.13,30.02,38,17,45,0.00
2013-3-15,57.3,42.7,27.0,34.3,24.2,17.2,71,49,32,30.07,29.74,24,6,27,0.00
2013-3-16,51.7,42.1,35.9,36.7,33.9,30.3,87,73,56,29.90,29.60,20,4,21,0.00
2013-3-17,39.5,36.6,34.7,32.7,27.0,20.8,87,69,51,30.23,29.89,20,3,23,0.00
2013-3-18,36.8,33.3,30.0,31.9,27.4,20.3,96,81,53,30.28,29.87,19,2,23,0.22
2013-3-19,56.5,41.2,32.2,43.0,27.2,7.1,100,68,17,29.89,29.69,43,8,44,0.00
2013-3-20,49.8,40.9,31.9,27.8,15.4,10.5,74,37,22,29.95,29.73,32,12,32,0.00
2013-3-21,35.2,30.4,25.4,27.5,13.0,5.7,74,49,33,29.88,29.76,31,11,36,0.00
2013-3-22,44.2,34.0,23.6,19.9,16.0,9.6,63,48,33,29.98,29.86,30,9,30,0.00
2013-3-23,52.2,36.7,19.4,25.6,20.6,14.6,86,55,29,30.00,29.88,25,5,27,0.00
2013-3-24,40.9,33.0,24.4,31.4,23.9,18.5,94,71,47,29.98,29.60,11,1,15,0.02
2013-3-25,35.9,33.6,32.1,33.4,31.8,30.4,96,93,87,29.68,29.50,10,1,10,0.35
2013-3-26,48.2,38.5,27.6,34.9,29.5,24.3,98,73,40,29.99,29.68,28,6,30,0.01
2013-3-27,47.9,40.6,34.1,31.3,27.0,21.5,76,59,38,30.10,29.98,35,9,43,0.00
2013-3-28,47.0,40.5,31.5,32.5,29.1,24.1,76,64,52,30.20,30.06,29,9,32,0.00
2013-3-29,55.6,44.5,35.3,35.2,29.6,22.9,80,58,31,30.23,30.10,21,3,24,0.00
2013-3-30,58.9,41.1,24.7,32.9,24.9,17.2,91,59,20,30.22,30.06,19,2,23,0.00
2013-3-31,49.2,44.2,32.2,46.9,36.9,24.7,95,77,50,30.06,29.71,16,2,18,0.08
2013-4-1,58.3,44.6,33.7,45.3,33.4,15.6,98,69,38,29.97,29.72,36,8,38,0.00
2013-4-2,46.0,35.4,25.1,20.4,15.9,10.1,76,48,24,30.16,29.97,30,7,34,0.00
2013-4-3,48.6,34.6,21.0,20.9,16.0,9.6,81,51,23,30.38,30.15,35,9,35,0.00
2013-4-4,48.8,35.3,17.5,24.1,14.7,10.5,81,47,24,30.39,30.01,21,4,21,0.00
2013-4-5,64.0,48.1,32.2,36.1,27.6,16.3,90,51,25,30.04,29.79,30,8,30,0.00
2013-4-6,55.6,44.8,30.6,26.8,21.2,16.7,67,41,23,30.29,30.03,23,5,23,0.00
2013-4-7,70.6,55.9,41.1,43.6,34.5,21.0,60,45,33,30.19,29.90,28,11,32,0.00
2013-4-8,79.2,66.9,47.0,50.4,44.6,40.3,83,47,27,30.03,29.87,20,4,23,0.00
2013-4-9,84.7,70.3,54.2,57.3,51.3,45.7,76,53,31,30.03,29.85,20,3,23,0.00
2013-4-10,89.3,74.4,56.0,59.4,54.3,48.8,78,52,29,29.92,29.70,25,4,28,0.00
2013-4-11,83.6,69.4,52.6,60.1,55.2,50.0,92,64,37,29.84,29.66,22,4,33,0.00
2013-4-12,70.8,56.8,50.4,61.9,53.5,41.3,98,89,71,29.76,29.52,23,7,28,0.58
2013-4-13,68.4,54.0,39.3,42.4,35.2,25.6,92,53,24,29.93,29.76,25,6,26,0.00
2013-4-14,66.4,52.9,35.0,40.3,35.4,31.1,89,54,31,30.12,29.93,18,3,20,0.00
2013-4-15,65.2,59.0,54.2,52.3,46.5,37.3,71,63,44,30.22,30.06,18,5,21,0.00
2013-4-16,74.9,64.1,55.4,59.8,54.5,46.8,86,72,57,30.23,30.04,25,9,33,0.00
2013-4-17,70.9,63.8,55.1,64.8,57.8,52.8,100,82,66,30.17,30.07,16,3,20,0.15
2013-4-18,76.5,65.5,58.3,65.7,57.6,54.3,95,77,54,30.17,29.91,19,6,26,0.04
2013-4-19,74.7,65.8,52.6,65.1,57.2,36.4,92,74,52,29.91,29.52,34,13,40,0.52
2013-4-20,57.2,50.2,40.6,36.9,28.8,23.9,57,44,30,30.33,29.76,31,12,32,0.00
2013-4-21,54.1,42.2,30.6,31.0,26.2,21.8,78,55,33,30.57,30.33,16,3,22,0.00
2013-4-22,56.9,46.2,33.4,38.0,32.9,27.8,88,61,41,30.54,30.35,16,3,20,0.00
2013-4-23,58.7,46.4,35.6,45.2,37.9,31.5,90,73,56,30.38,30.07,11,1,15,0.00
2013-4-24,76.7,59.4,39.6,59.3,49.3,36.9,93,72,43,30.07,29.69,32,7,38,0.05
2013-4-25,64.3,51.0,38.9,41.6,33.8,27.9,79,54,27,30.28,30.00,35,6,44,0.00
2013-4-26,63.2,48.1,32.8,41.0,35.0,30.5,93,64,32,30.44,30.27,35,2,35,0.00
2013-4-27,70.6,54.0,32.8,46.3,38.5,30.7,95,61,31,30.38,30.21,15,2,21,0.00
2013-4-28,60.4,55.4,52.2,48.5,42.7,35.3,84,64,43,30.23,30.08,22,4,26,0.07
2013-4-29,60.7,55.8,52.6,58.2,52.8,47.5,97,90,74,30.09,29.99,13,2,16,0.14
2013-4-30,60.1,56.4,54.1,56.6,53.9,51.6,97,91,86,30.25,30.06,10,1,14,0.03
2013-5-1,70.3,59.7,49.5,52.1,42.1,31.4,96,57,27,30.38,30.25,13,2,15,0.00
2013-5-2,69.9,55.1,36.8,50.4,43.5,34.7,96,68,36,30.40,30.28,13,2,18,0.00
2013-5-3,68.4,54.8,38.9,49.8,43.5,37.3,96,69,39,30.35,30.23,17,3,21,0.00
2013-5-4,68.6,54.6,38.0,47.7,41.8,35.6,94,65,38,30.30,30.13,15,2,21,0.00
2013-5-5,64.5,51.5,39.5,45.6,40.6,35.5,92,68,43,30.21,30.09,13,2,20,0.00
2013-5-6,60.7,53.9,43.3,57.0,49.3,38.5,92,84,78,30.15,30.01,14,3,16,0.03
2013-5-7,62.7,60.2,58.3,60.2,57.7,56.0,98,91,88,30.02,29.89,18,5,24,0.59
2013-5-8,67.8,59.7,51.3,60.7,54.3,49.9,99,83,62,29.96,29.88,12,1,16,0.17
2013-5-9,75.1,59.3,47.7,59.8,53.8,47.2,99,84,50,29.97,29.87,20,2,20,0.25
2013-5-10,82.4,63.4,47.6,65.3,56.6,47.3,100,82,42,29.98,29.81,26,2,29,0.66
2013-5-11,75.6,65.5,58.6,65.6,60.1,51.4,100,84,56,29.84,29.68,16,3,23,0.57
2013-5-12,60.5,55.1,39.5,53.2,36.7,25.8,87,52,30,30.01,29.72,28,9,32,0.00
2013-5-13,58.4,47.3,34.6,34.0,28.8,21.3,89,52,26,30.15,30.00,26,6,33,0.00
2013-5-14,63.9,47.8,28.5,39.5,34.1,26.7,96,64,33,30.20,29.98,11,2,15,0.00
2013-5-15,87.4,67.2,50.7,66.2,50.8,38.3,73,57,34,29.98,29.62,19,2,21,0.00
2013-5-16,77.9,72.5,60.7,63.8,57.6,51.9,82,60,45,29.91,29.70,18,4,24,0.03
2013-5-17,82.2,68.0,51.0,63.4,55.4,47.8,99,68,38,30.07,29.91,12,1,16,0.00
2013-5-18,69.9,63.4,59.0,58.1,55.2,48.5,91,76,47,30.18,30.06,13,4,18,0.00
2013-5-19,72.8,62.4,58.3,65.1,59.8,56.1,98,91,75,30.17,30.04,10,1,15,0.00
2013-5-20,73.0,69.4,65.3,65.9,64.8,64.0,96,86,78,30.06,29.92,15,0,18,0.02
2013-5-21,86.3,74.3,62.1,72.0,66.7,61.7,99,79,57,29.95,29.80,14,2,18,0.00
2013-5-22,69.8,67.4,65.5,67.1,65.4,64.3,97,93,88,29.89,29.80,18,2,21,0.48
2013-5-23,78.3,68.7,64.0,68.4,65.1,62.4,99,89,65,29.85,29.69,14,2,16,0.23
2013-5-24,64.0,54.7,45.4,63.1,44.8,30.1,98,71,50,30.17,29.70,36,15,39,0.02
2013-5-25,65.0,53.2,41.9,39.8,34.2,30.0,70,50,32,30.19,30.07,36,12,39,0.00
2013-5-26,70.8,56.2,39.8,43.7,37.6,33.7,88,53,27,30.20,30.10,25,6,27,0.00
2013-5-27,67.3,55.0,38.5,53.6,44.5,37.2,98,72,37,30.26,30.15,10,1,15,0.00
2013-5-28,79.4,65.3,52.9,67.5,58.5,48.9,93,79,64,30.15,30.00,10,1,14,0.24
2013-5-29,88.0,74.0,58.7,68.3,63.2,57.9,99,72,38,30.07,30.01,19,3,21,0.00
2013-5-30,90.1,76.3,61.2,70.8,65.3,59.8,98,72,40,30.15,30.04,11,1,18,0.00
2013-5-31,88.4,75.8,60.5,67.8,63.3,57.3,99,69,38,30.10,29.95,16,3,20,0.00
2013-6-1,89.0,78.1,63.5,69.2,65.4,60.8,94,67,47,29.99,29.83,18,4,21,0.00
2013-6-2,81.6,73.5,65.6,71.5,66.4,61.4,94,79,62,29.84,29.78,18,2,24,0.64
2013-6-3,77.4,70.7,63.4,68.5,63.4,53.1,100,79,58,29.94,29.80,22,4,29,0.22
2013-6-4,75.1,63.2,51.9,54.6,48.9,43.5,92,62,35,30.10,29.94,16,2,20,0.00
2013-6-5,78.3,65.6,49.5,59.0,54.8,48.7,100,72,46,30.14,29.98,16,3,21,0.00
2013-6-6,68.9,64.9,62.4,64.4,57.9,47.4,97,79,56,30.00,29.81,15,3,21,0.69
2013-6-7,68.8,65.6,63.7,68.5,65.0,62.5,100,98,94,29.81,29.60,17,2,20,0.39
2013-6-8,78.5,68.7,62.3,64.3,61.0,57.8,95,78,56,30.06,29.70,18,2,20,0.00
2013-6-9,80.5,69.1,58.0,69.0,63.3,57.4,99,83,62,30.16,30.04,11,1,16,0.01
2013-6-10,81.4,70.7,67.3,73.9,68.7,63.0,99,94,73,30.05,29.73,23,3,32,1.37
2013-6-11,78.6,71.6,64.2,68.2,64.6,62.5,100,80,60,29.81,29.74,22,4,23,0.01
2013-6-12,88.0,75.8,64.3,71.5,65.9,61.5,94,74,48,29.83,29.73,19,3,23,0.00
2013-6-13,83.6,71.9,67.4,69.8,64.9,53.7,99,80,58,29.74,29.44,29,7,33,0.39
2013-6-14,78.5,68.5,59.8,58.2,54.5,51.0,87,62,41,29.96,29.59,24,8,29,0.00
2013-6-15,80.9,67.9,53.5,63.0,55.7,46.9,98,69,31,30.05,29.95,19,2,20,0.00
2013-6-16,80.5,70.7,59.8,66.2,61.6,57.3,95,74,56,29.99,29.84,19,4,24,0.00
2013-6-17,85.3,74.2,62.1,69.9,65.6,60.1,96,77,47,29.92,29.83,13,2,16,0.00
2013-6-18,73.2,69.8,65.0,69.9,67.1,63.8,96,91,83,29.87,29.76,10,1,10,0.71
2013-6-19,77.4,67.8,60.4,64.7,61.6,57.9,99,82,54,30.10,29.85,11,1,12,0.11
2013-6-20,78.8,69.1,57.2,67.6,61.3,54.0,100,78,57,30.22,30.10,20,3,21,0.00
2013-6-21,82.2,71.5,56.9,63.7,57.2,50.4,93,62,45,30.24,30.17,14,2,21,0.00
2013-6-22,85.7,74.4,59.3,69.5,64.2,56.0,99,72,50,30.20,30.06,13,2,16,0.00
2013-6-23,85.7,76.0,65.6,72.0,68.0,62.9,99,78,50,30.14,30.01,12,1,15,0.00
2013-6-24,90.1,75.8,67.9,74.3,68.6,62.6,95,80,43,30.09,29.98,28,2,33,0.12
2013-6-25,90.5,78.5,66.6,73.1,68.7,61.2,98,75,50,29.99,29.83,39,3,39,0.15
2013-6-26,89.0,74.3,64.2,73.5,67.6,63.8,100,82,49,29.89,29.77,14,2,18,0.01
2013-6-27,81.2,73.2,68.1,72.4,68.2,65.8,97,85,65,29.78,29.56,19,3,23,0.00
2013-6-28,87.4,75.3,67.4,71.0,66.0,60.5,92,74,52,29.58,29.43,23,3,24,0.00
2013-6-29,85.7,74.2,64.2,67.4,63.5,58.0,97,72,42,29.69,29.47,20,2,23,0.06
2013-6-30,86.1,74.7,65.8,73.8,69.5,65.5,100,85,61,29.79,29.65,14,1,20,0.01
2013-7-1,82.6,76.1,71.3,72.3,69.4,67.2,92,80,67,29.92,29.77,15,3,21,0.00
2013-7-2,82.6,76.7,73.2,72.7,70.4,68.7,90,81,68,30.10,29.92,20,5,26,0.00
2013-7-3,84.3,76.8,73.0,74.3,70.9,67.6,93,83,68,30.17,30.08,17,3,21,0.02
2013-7-4,87.6,79.8,71.1,75.1,71.3,69.0,95,76,61,30.19,30.10,18,4,23,0.00
2013-7-5,88.0,80.5,69.1,74.2,71.2,67.5,98,74,57,30.16,30.05,18,4,28,0.00
2013-7-6,90.5,80.9,69.4,74.8,70.7,67.5,96,72,53,30.15,30.00,16,2,21,0.00
2013-7-7,88.8,76.6,70.4,74.2,70.0,66.7,96,81,58,30.05,29.94,37,1,43,0.59
2013-7-8,83.8,73.5,72.0,71.6,70.6,61.6,96,91,58,30.08,29.99,4,0,8,0.40
2013-7-9,84.5,75.6,69.9,70.2,67.0,64.4,87,75,53,30.12,29.99,13,1,15,67.65
2013-7-10,78.8,76.0,72.5,71.7,69.6,66.8,87,81,77,30.00,29.86,7,0,8,0.01
2013-7-11,83.2,77.1,70.8,69.0,65.4,61.7,88,68,49,29.94,29.87,13,2,16,0.01
2013-7-12,75.3,70.1,65.0,65.4,63.2,61.3,91,79,67,30.06,29.91,13,1,18,0.56
2013-7-13,83.2,74.4,67.9,69.9,66.2,63.2,91,77,57,30.26,30.06,10,1,15,0.03
2013-7-14,88.2,79.1,69.8,72.5,68.6,65.3,91,72,48,30.33,30.26,17,2,20,0.05
2013-7-15,92.3,79.6,67.1,71.7,67.7,63.7,92,70,40,30.32,30.19,10,1,14,0.00
2013-7-16,92.1,81.4,73.0,72.4,69.1,60.7,90,69,36,30.27,30.18,12,1,18,0.00
2013-7-17,93.8,81.8,71.1,72.8,68.7,60.0,90,68,34,30.24,30.09,11,1,14,0.00
2013-7-18,94.5,83.1,72.0,74.0,71.2,68.2,91,70,45,30.13,30.00,8,1,10,0.00
2013-7-19,94.0,82.3,73.7,74.7,70.5,64.7,86,69,40,30.01,29.86,20,2,24,0.02
2013-7-20,92.3,80.1,71.8,70.5,66.6,60.8,84,65,40,29.90,29.79,16,3,22,0.01
2013-7-21,85.1,75.2,68.3,70.2,66.7,63.9,89,76,54,29.95,29.88,15,1,23,0.01
2013-7-22,86.7,75.1,67.6,72.9,68.5,64.9,92,81,52,29.94,29.76,17,1,21,0.99
2013-7-23,85.5,76.0,69.6,72.6,66.5,59.2,92,75,42,29.77,29.66,20,3,23,0.09
2013-7-24,80.1,72.6,59.9,65.4,59.4,51.6,89,65,41,29.95,29.70,19,4,23,0.00
2013-7-25,77.2,65.1,55.4,56.3,53.1,49.4,87,68,41,30.06,29.94,14,2,15,0.00
2013-7-26,81.4,67.6,53.8,59.0,55.2,50.8,92,68,36,30.13,30.02,11,1,16,0.00
2013-7-27,81.1,71.3,59.5,68.7,62.8,55.9,91,75,56,30.05,29.91,14,2,18,0.00
2013-7-28,82.8,73.5,62.9,67.9,63.9,58.0,86,73,48,30.01,29.87,23,1,23,0.03
2013-7-29,79.8,68.0,53.5,59.6,52.7,45.4,91,62,31,30.18,30.01,15,2,16,0.01
2013-7-30,81.4,67.8,53.6,60.8,55.6,50.1,92,68,35,30.25,30.14,15,1,20,0.00
2013-7-31,79.2,68.7,59.3,65.4,61.6,56.7,92,79,56,30.16,30.00,14,1,18,0.10
2013-8-1,83.0,72.7,67.3,68.3,65.3,63.1,92,79,53,30.00,29.81,15,1,15,0.30
2013-8-2,84.7,72.4,60.7,65.6,59.1,48.8,92,68,29,29.97,29.88,17,2,20,0.01
2013-8-3,72.0,67.1,62.3,66.0,61.8,58.5,91,83,72,29.99,29.93,14,1,21,0.20
2013-8-4,79.0,68.3,56.6,63.1,55.2,44.8,92,67,33,30.06,29.95,26,4,26,0.01
2013-8-5,79.6,65.7,52.3,58.8,53.0,46.9,92,67,32,30.13,30.01,11,1,12,0.00
2013-8-6,77.7,68.9,62.3,66.0,61.2,54.3,91,77,62,30.07,30.00,9,1,14,0.57
2013-8-7,83.6,73.8,68.6,69.9,66.3,63.8,90,78,57,30.06,29.96,17,2,23,0.32
2013-8-8,81.6,74.7,67.6,72.7,69.1,65.2,92,83,65,30.02,29.95,13,1,15,0.09
2013-8-9,85.1,78.0,73.2,73.7,69.7,66.6,90,77,57,29.98,29.86,17,2,22,0.08
2013-8-10,83.4,73.6,66.9,67.3,62.9,52.9,91,72,38,30.09,29.96,8,0,9,0.01
2013-8-11,84.5,74.1,64.5,68.2,63.9,61.0,92,73,47,30.12,29.99,10,1,15,0.00
2013-8-12,85.7,75.0,64.5,70.5,64.8,60.6,92,73,45,30.03,29.90,11,1,15,0.00
2013-8-13,84.3,74.2,68.4,68.2,64.6,53.5,90,73,48,29.90,29.74,18,3,18,0.31
2013-8-14,72.3,63.8,52.8,54.0,47.4,44.5,85,56,39,30.13,29.86,26,7,30,0.00
2013-8-15,75.6,61.1,46.4,56.3,47.3,38.4,92,66,27,30.22,30.11,9,1,14,0.00
2013-8-16,79.0,62.8,48.2,57.5,50.4,45.5,92,69,33,30.20,30.14,11,1,11,0.01
2013-8-17,79.4,65.4,49.4,58.4,53.5,46.9,92,68,42,30.28,30.20,10,1,15,0.00
2013-8-18,69.3,64.8,59.8,61.7,58.3,54.0,90,80,59,30.27,30.19,12,1,16,0.09
2013-8-19,78.1,66.2,57.0,65.3,60.5,54.4,92,83,62,30.19,30.06,8,0,9,0.00
2013-8-20,84.9,70.8,60.4,69.4,61.5,56.1,92,76,39,30.19,30.10,7,0,9,0.01
2013-8-21,87.0,73.4,61.0,70.1,64.4,58.4,92,75,45,30.21,30.06,16,1,16,0.00
2013-8-22,86.1,75.2,67.3,65.9,63.6,61.1,89,69,45,30.09,29.93,17,2,20,0.00
2013-8-23,73.2,67.9,60.4,66.7,63.5,57.5,91,86,72,30.15,29.95,4,0,8,0.45
2013-8-24,80.3,66.3,56.7,64.2,57.1,51.7,92,75,40,30.34,30.14,9,0,10,0.01
2013-8-25,82.0,66.8,53.1,62.7,55.7,50.5,92,71,37,30.42,30.26,12,1,14,0.00
2013-8-26,85.9,72.5,58.7,62.2,58.7,55.2,90,65,37,30.28,30.01,14,2,16,0.00
2013-8-27,87.0,77.0,68.6,71.4,64.7,60.0,77,67,51,30.00,29.88,15,2,20,0.01
2013-8-28,74.7,72.2,70.1,71.5,68.4,64.2,92,88,73,29.93,29.82,11,1,14,0.63
2013-8-29,84.0,74.5,66.4,70.0,66.8,63.1,92,79,51,30.02,29.85,10,0,14,0.00
2013-8-30,86.3,74.1,63.1,68.5,64.6,60.7,92,74,46,30.04,29.86,21,2,21,0.00
2013-8-31,88.0,76.6,68.4,70.6,67.3,63.6,91,75,45,29.88,29.78,18,2,21,0.74
2013-9-1,89.0,75.9,66.3,73.2,66.7,61.8,92,75,46,29.85,29.75,21,1,23,0.01
2013-9-2,89.7,77.7,68.8,70.7,67.2,61.1,92,73,41,29.81,29.71,11,1,14,0.11
2013-9-3,81.4,73.0,61.8,69.4,58.0,48.9,88,62,33,29.99,29.73,24,4,27,0.00
2013-9-4,81.8,65.5,52.0,57.1,51.3,40.4,92,65,27,30.11,30.00,11,1,15,0.00
2013-9-5,79.8,66.2,54.5,60.2,53.3,44.8,91,67,36,30.15,30.03,21,4,26,0.00
2013-9-6,73.3,58.8,46.2,51.9,45.6,36.1,92,66,27,30.29,30.15,11,1,15,0.00
2013-9-7,81.8,62.2,45.4,55.6,49.9,35.9,92,69,21,30.16,29.94,9,1,10,0.01
2013-9-8,84.5,70.6,57.2,63.7,59.2,52.8,89,69,46,30.06,29.89,15,2,20,0.00
2013-9-9,77.6,67.1,57.0,62.0,53.7,44.7,76,63,48,30.22,30.06,12,1,20,0.00
2013-9-10,91.0,76.9,64.0,68.4,64.8,59.4,91,69,43,30.17,30.07,16,2,20,0.00
2013-9-11,92.7,80.2,71.3,71.1,68.1,64.1,88,69,42,30.15,29.99,16,2,18,0.00
2013-9-12,91.6,77.2,67.3,70.0,64.1,56.4,91,67,33,30.00,29.72,24,3,24,0.00
2013-9-13,75.6,67.0,55.7,62.3,51.8,44.0,82,60,33,29.97,29.71,32,7,33,0.00
2013-9-14,66.6,54.8,41.8,48.1,40.9,37.4,90,63,36,30.19,29.97,20,3,23,0.00
2013-9-15,76.8,58.8,41.5,54.7,46.4,38.5,92,67,35,30.25,30.08,15,2,20,0.00
2013-9-16,72.5,61.5,52.3,57.2,53.1,48.7,89,75,46,30.26,30.03,17,2,27,0.10
2013-9-17,68.6,54.1,41.6,50.9,41.0,29.1,91,66,25,30.45,30.26,10,1,16,0.01
2013-9-18,72.3,53.1,36.2,47.6,41.4,33.3,91,69,34,30.35,30.19,14,1,15,0.00
2013-9-19,77.0,59.3,43.6,54.6,48.8,40.6,91,71,41,30.20,30.07,12,1,20,0.00
2013-9-20,80.7,65.3,49.2,60.6,54.5,46.7,92,71,45,30.09,29.94,15,2,20,0.00
2013-9-21,68.6,64.3,58.9,62.7,58.7,56.1,91,82,70,29.95,29.68,22,4,29,0.51
2013-9-22,71.5,59.3,48.0,58.3,48.4,41.6,92,70,40,29.98,29.74,21,3,26,0.01
2013-9-23,64.7,55.2,42.2,47.8,40.9,37.1,87,60,39,30.12,29.98,18,3,21,0.00
2013-9-24,71.8,51.4,35.5,49.1,40.7,32.6,92,71,31,30.16,29.97,11,1,14,0.00
2013-9-25,75.1,54.4,39.8,54.8,42.9,36.3,92,71,27,30.03,29.90,9,0,12,0.01
2013-9-26,75.1,56.1,42.6,52.7,45.3,40.2,92,72,32,30.09,29.95,7,0,9,0.00
2013-9-27,73.5,56.7,44.8,54.9,48.9,41.8,92,77,44,30.24,30.09,8,0,8,0.00
2013-9-28,67.3,58.1,46.2,54.4,49.8,42.8,91,76,48,30.33,30.23,6,0,9,0.00
2013-9-29,73.9,55.0,44.5,58.5,45.8,40.0,92,76,30,30.23,30.07,12,0,20,0.01
2013-9-30,76.0,58.2,43.9,53.4,47.4,41.4,92,71,35,30.11,29.98,14,1,14,0.00
2013-10-1,82.0,63.8,48.8,59.3,51.5,46.3,92,69,33,30.09,29.97,17,2,23,0.00
2013-10-2,85.1,67.1,53.8,58.5,53.7,50.0,89,67,32,30.10,30.00,20,2,20,0.00
2013-10-3,83.4,67.0,53.5,61.1,56.9,50.1,92,73,41,30.15,30.03,9,0,10,0.00
2013-10-4,86.3,68.7,57.0,62.5,58.3,54.1,92,73,36,30.11,30.01,15,1,15,0.00
2013-10-5,86.5,73.0,63.5,62.6,60.0,55.8,85,67,37,30.11,29.99,14,1,16,0.00
2013-10-6,88.4,73.2,58.0,66.2,58.3,53.7,92,64,32,30.02,29.88,27,5,38,0.00
2013-10-7,73.9,64.0,47.1,65.0,54.6,40.1,88,72,46,30.09,29.72,26,6,32,0.61
2013-10-8,68.4,53.3,41.2,47.4,41.4,37.9,91,67,36,30.31,30.09,14,1,20,0.00
2013-10-9,61.0,51.8,42.2,49.7,42.6,36.4,92,73,40,30.36,30.26,9,1,14,0.06
2013-10-10,54.7,52.7,51.3,52.2,49.3,46.9,92,88,83,30.26,30.05,12,1,15,2.42
2013-10-11,59.6,56.4,52.9,57.3,54.1,50.6,92,92,92,30.05,29.99,9,1,14,1.46
2013-10-12,67.4,61.3,57.5,59.3,56.7,52.0,92,85,61,30.20,30.01,11,0,14,0.16
2013-10-13,58.6,57.6,56.6,56.0,54.9,54.3,92,91,88,30.34,30.19,6,0,8,0.33
2013-10-14,69.6,58.6,50.1,54.7,50.8,46.7,92,77,51,30.35,30.24,10,0,10,0.00
2013-10-15,70.9,56.8,48.5,58.9,49.3,45.1,92,79,42,30.26,30.09,11,0,11,0.01
2013-10-16,71.8,61.4,50.4,57.2,53.9,46.1,90,77,56,30.09,29.90,13,1,16,0.00
2013-10-17,67.8,60.3,55.1,61.0,54.4,44.1,92,81,57,29.91,29.70,24,2,27,0.09
2013-10-18,65.6,55.4,41.5,44.8,38.4,33.0,87,55,30,30.03,29.87,21,4,23,0.00
2013-10-19,62.7,50.3,38.6,52.6,43.4,35.6,92,79,52,30.02,29.77,22,2,23,0.05
2013-10-20,62.1,48.9,36.0,36.6,32.4,26.5,85,56,27,30.11,29.90,26,4,30,0.00
2013-10-21,67.6,50.0,32.2,44.3,35.0,29.3,92,62,27,30.17,29.93,23,3,30,0.00
2013-10-22,60.7,51.3,36.2,47.2,38.2,26.5,81,63,30,29.93,29.84,19,2,23,0.00
2013-10-23,49.2,42.3,35.5,37.1,33.4,30.1,89,72,50,29.93,29.72,18,2,21,0.00
2013-10-24,49.4,40.9,33.4,32.4,28.4,21.3,76,62,36,30.16,29.92,26,4,27,0.01
2013-10-25,51.9,39.7,28.8,31.0,25.8,21.9,81,60,35,30.34,30.16,25,5,26,0.01
2013-10-26,56.5,43.1,28.2,27.9,23.4,16.0,79,50,21,30.33,29.94,23,5,26,0.00
2013-10-27,58.7,46.4,31.6,33.5,28.5,24.3,81,52,27,30.16,29.97,18,3,22,0.00
2013-10-28,61.2,41.3,27.8,37.6,30.7,24.3,89,70,34,30.30,30.15,10,0,10,0.00
2013-10-29,62.3,43.4,30.0,41.6,33.8,26.9,91,72,35,30.43,30.29,8,0,9,0.00
2013-10-30,69.4,56.8,42.9,52.1,45.5,37.5,83,67,47,30.32,30.14,8,0,9,0.07
2013-10-31,68.6,62.4,57.2,56.5,53.7,51.5,85,74,57,30.16,29.71,25,4,38,0.02
2013-11-1,74.4,63.2,44.3,58.5,48.9,36.5,88,63,26,29.71,29.52,32,7,43,0.30
2013-11-2,63.7,50.5,39.2,48.4,38.6,31.1,92,67,35,29.91,29.67,24,4,27,0.00
2013-11-3,55.3,46.0,30.7,37.5,27.8,12.4,77,53,19,30.48,29.91,23,6,24,0.00
2013-11-4,44.5,33.9,23.2,26.0,20.8,16.0,82,61,33,30.67,30.48,14,1,14,0.00
2013-11-5,53.3,43.7,28.8,40.5,31.6,22.4,81,63,48,30.65,30.44,13,1,14,0.00
2013-11-6,68.3,57.9,43.9,47.3,43.9,38.1,86,61,43,30.45,30.01,24,7,29,0.00
2013-11-7,62.3,53.1,39.9,50.1,39.1,16.9,86,60,35,30.11,29.87,31,7,33,0.16
2013-11-8,48.6,39.7,26.9,26.0,20.4,15.0,74,47,26,30.34,30.10,32,5,34,0.00
2013-11-9,54.7,39.6,23.3,29.4,21.9,18.3,85,54,27,30.36,30.03,20,4,23,0.00
2013-11-10,58.1,47.3,36.9,31.7,23.7,19.6,59,41,24,30.26,29.99,32,8,36,0.00
2013-11-11,57.2,43.2,27.2,30.7,24.4,19.3,78,51,24,30.31,30.01,18,2,20,0.00
2013-11-12,51.7,37.4,24.2,34.3,18.8,7.9,77,48,30,30.44,29.99,32,10,33,0.00
2013-11-13,42.8,33.3,25.8,18.6,14.1,8.2,64,46,25,30.52,30.39,24,5,26,0.00
2013-11-14,58.3,36.2,21.9,19.9,13.2,1.9,72,44,11,30.39,30.23,14,2,18,0.00
2013-11-15,59.8,40.4,21.1,32.8,19.7,4.7,83,51,11,30.30,30.18,9,1,10,0.00
2013-11-16,58.3,48.7,38.2,47.3,41.8,32.1,89,78,58,30.32,30.21,13,3,21,0.03
2013-11-17,63.2,56.8,51.3,56.5,51.1,47.2,89,81,73,30.22,29.67,25,10,32,0.00
2013-11-18,64.8,57.7,47.6,55.4,28.4,13.8,79,36,15,29.95,29.66,39,11,48,0.14
2013-11-19,47.9,40.9,30.0,24.0,21.2,18.5,65,46,31,30.41,29.95,29,10,32,0.00
2013-11-20,46.0,33.4,21.1,26.7,17.2,8.0,84,55,23,30.58,30.40,12,1,14,0.00
2013-11-21,48.5,38.0,25.1,36.9,27.9,17.6,81,67,53,30.59,30.37,11,1,15,0.00
2013-11-22,60.4,51.2,44.1,48.1,41.8,36.0,80,70,57,30.36,30.03,23,1,23,0.00
2013-11-23,52.8,39.8,27.8,40.3,20.2,1.4,73,47,30,30.26,30.07,38,12,46,0.00
2013-11-24,29.5,24.6,19.2,4.6,0.9,-6.1,48,36,24,30.55,30.26,36,15,39,0.00
2013-11-25,37.2,26.9,14.3,7.7,3.1,-5.3,65,38,16,30.58,30.32,19,3,23,0.00
2013-11-26,36.2,33.3,31.3,31.2,22.7,4.2,90,69,26,30.32,29.65,10,1,14,1.31
2013-11-27,38.9,34.9,27.5,35.1,25.5,9.0,91,70,44,30.07,29.58,34,13,39,0.10
2013-11-28,36.5,29.8,24.8,19.9,11.5,4.8,69,47,33,30.48,30.07,28,8,32,0.00
2013-11-29,39.5,27.7,18.0,24.4,15.6,11.7,81,63,37,30.74,30.47,23,2,24,0.00
2013-11-30,34.9,26.2,14.3,19.8,14.2,9.3,83,62,43,30.74,30.38,13,2,16,0.00
2013-12-1,42.5,30.9,16.7,25.4,19.9,11.5,83,64,46,30.37,30.03,8,0,8,0.00
2013-12-2,43.8,37.9,34.3,30.6,27.8,25.0,76,67,54,30.03,29.89,6,0,8,0.00
2013-12-3,55.4,38.5,29.8,34.5,29.6,25.2,85,72,42,29.99,29.89,10,0,10,0.00
2013-12-4,55.9,43.0,28.8,46.9,35.7,24.9,90,77,53,30.10,29.98,8,0,10,0.00
2013-12-5,66.3,57.6,47.7,54.9,50.6,44.0,90,78,60,30.05,29.90,18,3,23,0.02
2013-12-6,58.0,44.6,36.2,55.7,41.3,33.1,92,88,83,30.21,29.86,22,5,26,1.67
2013-12-7,38.2,34.3,26.1,33.1,25.2,16.0,89,70,54,30.57,30.17,22,6,22,0.01
2013-12-8,28.2,25.3,23.2,24.8,18.9,13.2,87,77,63,30.62,30.34,4,0,6,0.72
2013-12-9,36.5,31.9,28.2,31.7,28.5,24.8,90,87,80,30.35,30.05,8,0,8,0.19
2013-12-10,36.2,31.4,27.9,31.5,23.2,9.1,92,74,43,30.24,30.01,23,3,27,0.29
2013-12-11,37.0,23.7,11.1,14.7,9.1,2.6,78,55,31,30.42,30.24,13,1,20,0.00
2013-12-12,31.6,23.8,14.6,19.7,3.6,-6.1,78,43,22,30.47,30.27,26,4,27,0.00
2013-12-13,39.6,23.7,8.3,16.6,7.1,-3.0,71,51,27,30.33,30.23,11,1,11,0.00
2013-12-14,35.0,30.9,24.7,30.6,25.6,16.6,90,81,70,30.34,29.76,11,1,16,0.18
2013-12-15,41.6,33.3,27.5,34.6,24.2,16.0,91,71,49,29.96,29.66,29,5,33,0.00
2013-12-16,35.2,30.7,27.6,21.1,18.7,14.7,70,61,53,30.20,29.96,18,2,21,0.00
2013-12-17,36.8,32.2,28.2,27.9,24.6,20.9,82,74,65,30.15,29.94,15,3,18,0.00
2013-12-18,38.0,30.4,19.2,25.2,17.2,12.6,85,60,42,30.24,30.02,23,5,24,0.00
2013-12-19,55.6,33.1,18.1,27.6,19.9,12.4,80,62,26,30.22,30.07,14,1,16,0.00
2013-12-20,54.5,42.3,30.9,33.0,28.2,24.0,80,60,34,30.10,29.97,12,1,16,0.00
2013-12-21,67.9,56.7,41.5,53.9,42.2,30.7,74,59,46,30.00,29.84,18,3,24,0.00
2013-12-22,69.3,63.5,53.9,59.8,54.2,48.1,89,72,48,29.98,29.76,29,6,34,0.19
2013-12-23,57.0,49.5,34.7,54.6,41.4,19.6,92,75,52,30.27,29.89,26,6,27,0.36
2013-12-24,37.2,29.7,19.2,24.0,12.8,-0.4,68,50,29,30.51,30.24,33,8,34,0.00
2013-12-25,31.8,23.5,15.6,10.0,6.5,3.3,66,48,33,30.61,30.36,16,3,20,0.00
2013-12-26,44.8,31.8,24.4,19.9,12.6,9.4,62,46,27,30.38,30.24,26,3,40,0.00
2013-12-27,52.2,33.2,18.8,20.8,12.5,1.8,79,48,13,30.43,30.32,20,3,20,0.00
2013-12-28,58.7,41.3,25.7,23.0,18.3,14.4,68,42,18,30.34,30.11,17,3,20,0.00
2013-12-29,47.6,43.4,39.8,42.9,34.8,18.0,92,74,31,30.11,29.58,22,2,26,0.81
2013-12-30,46.5,38.1,27.0,35.7,25.3,15.2,71,60,51,30.20,29.83,22,5,29,0.00
2013-12-31,40.3,30.6,22.2,23.7,15.5,10.3,70,54,34,30.33,30.12,45,5,45,0.00
2014-1-1,47.6,33.0,20.8,24.2,19.1,11.4,75,59,30,30.42,30.12,12,1,14,0.00
2014-1-2,33.1,29.1,23.2,27.3,23.2,17.5,88,79,68,30.11,29.66,10,0,10,0.17